STARLINK-35033

Last updated on Thu Oct 02 2025 00:02:05 GMT+0000 (Coordinated Universal Time)

1 65468U 25195L 25274.46712948 -.00339153 00000+0 -64699-2 0 9993 2 65468 53.1582 280.7598 0000891 49.6434 310.4653 15.48816018 5573
UTC large
Height (km)
Speed (km/s)
/
Latitude / Longitude
Inclination (degrees)
Orbital Period (minutes)
Azimuth
Elevation
Range (km)
Doppler Factor

Next 0 passes for location: London (51.5072 / 0.1276)

Sorry there are no passes over London.
STARLINK-35033